Regional Weather Roundup
Issued by NWS

Home | Current Version | Previous Version | Text Only | Print | Product List | Glossary Off
Versions: 1 2 3 4 5 6 7 8 9 10 11 12 13 14 15 16 17 18 19 20 21 22 23 24 25 26 27 28 29 30 31 32 33 34 35 36 37 38 39 40 41 42 43 44 45 46 47 48 49 50

000
ASUS43 KBIS 271810
RWRND
NORTH DAKOTA REGIONAL WEATHER ROUNDUP
NATIONAL WEATHER SERVICE EASTERN NORTH DAKOTA/GRAND FORKS ND
100 PM CDT SUN MAY 27 2018

  NOTE: "FAIR" INDICATES FEW OR NO CLOUDS BELOW 12,000 FEET WITH NO
  SIGNIFICANT WEATHER AND/OR OBSTRUCTIONS TO VISIBILITY.

NDZ001>003-009>011-017-271900-
...NORTHWEST NORTH DAKOTA...

CITY           SKY/WX    TMP DP  RH WIND       PRES   REMARKS
WILLISTON      FAIR      75  59  57 SW5       29.94S
6HR MIN TEMP:  62; 6HR MAX TEMP:  76;

MINOT          FAIR      78  57  48 CALM      29.88R
MINOT AFB      FAIR      77  57  49 CALM      29.88R
6HR MIN TEMP:  62; 6HR MAX TEMP:  78;

$$

NDZ018>021-031>035-040>046-271900-
...SOUTHWEST NORTH DAKOTA...

CITY           SKY/WX    TMP DP  RH WIND       PRES   REMARKS
BISMARCK       FAIR      74  61  63 NE14G24   29.78F
DICKINSON      FAIR      75  57  53 N14       29.87S
GARRISON         N/A     72  61  68 E7        29.87F
HETTINGER      FAIR      75  58  55 NW16      29.88F
$$

NDZ004>008-012>016-024-026-027-054-271900-
...NORTHEAST NORTH DAKOTA...

CITY           SKY/WX    TMP DP  RH WIND       PRES   REMARKS
GRAND FORKS    CLOUDY    75  64  68 N14       29.82S
GRAND FORKS AF PTSUNNY   73  64  73 N15       29.83F
DEVILS LAKE    FAIR      74  60  61 N13       29.87F
$$

NDZ022-023-025-028>030-036>039-047>053-271900-
...SOUTHEAST NORTH DAKOTA...

CITY           SKY/WX    TMP DP  RH WIND       PRES   REMARKS
JAMESTOWN      FAIR      74  62  66 CALM      29.79R
FARGO          FAIR      74  59  59 SE14      29.75F
WAHPETON       FAIR      79  59  50 SE14      29.80S
$$




USA.gov is the U.S. government's official web portal to all federal, state and local government web resources and services.